Location: Sternwarte Stuttgart
(48.7670°N, 9.1830°E)
Time: 19:21:56
(UTC+02:00)

ISS - All Passes

Search period start: 29 March 2015 00:00
Search period end: 08 April 2015 01:00
Orbit: 396 x 406 km, 51.6° (Epoch: 29 March)

Date Brightness Start Highest point End Pass type
(mag) Time Alt. Az. Time Alt. Az. Time Alt. Az.
29 Mar - 00:25:23 10° WSW 00:28:39 85° SSE 00:31:55 10° ENE night (unlit)
29 Mar - 03:02:03 10° W 03:05:14 48° N 03:08:24 10° ENE night (unlit)
29 Mar - 04:38:37 10° WNW 04:41:52 75° NNE 04:45:06 10° ESE visible
29 Mar - 06:15:17 10° W 06:18:04 27° SW 06:20:50 10° SSE visible
29 Mar - 22:58:26 10° SSE 22:59:25 11° SE 23:00:30 10° ESE night (unlit)
30 Mar - 00:32:06 10° SW 00:35:18 56° SSE 00:38:30 10° ENE night (unlit)
30 Mar - 02:08:33 10° W 02:11:45 53° N 02:14:57 10° ENE night (unlit)
30 Mar - 03:45:13 10° WNW 03:48:26 58° NNE 03:51:38 10° E visible
30 Mar - 05:21:42 10° WNW 05:24:49 43° SSW 05:27:54 10° SE visible
30 Mar - 23:38:59 10° SSW 23:41:59 34° SSE 23:44:59 10° E night (unlit)
31 Mar - 01:15:01 10° W 01:18:16 65° NNW 01:21:31 10° ENE night (unlit)
31 Mar - 02:51:45 10° WNW 02:54:57 50° N 02:58:07 10° E night (unlit)
31 Mar - 04:28:13 10° WNW 04:31:28 70° SSW 04:34:41 10° ESE visible
31 Mar - 06:05:31 10° WSW 06:07:25 14° SW 06:09:15 10° S visible
31 Mar - 22:46:10 10° SSW 22:48:42 21° SE 22:51:15 10° E night (unlit)
01 Apr - 00:21:32 10° WSW 00:24:49 88° N 00:28:04 10° ENE night (unlit)
01 Apr - 01:58:13 10° WNW 02:01:24 48° N 02:04:34 10° ENE night (unlit)
01 Apr - 03:34:46 10° WNW 03:38:01 81° NNE 03:41:16 10° ESE night (unlit)
01 Apr - 05:11:29 10° W 05:14:10 24° SW 05:16:50 10° SSE visible
01 Apr - 21:53:59 10° SSE 21:55:27 13° SE 21:57:01 10° ESE night (unlit)
01 Apr - 23:28:08 10° SW 23:31:22 62° SSE 23:34:35 10° ENE night (unlit)
02 Apr - 01:04:38 10° W 01:07:51 51° N 01:11:02 10° ENE night (unlit)
02 Apr - 02:41:17 10° WNW 02:44:30 61° NNE 02:47:44 10° E night (unlit)
02 Apr - 04:17:47 10° WNW 04:20:51 39° SSW 04:23:53 10° SE night (unlit)
02 Apr - 22:34:53 10° SW 22:37:57 38° SSE 22:41:01 10° ENE night (unlit)
03 Apr - 00:11:02 10° W 00:14:16 62° NNW 00:17:31 10° ENE night (unlit)
03 Apr - 01:47:45 10° WNW 01:50:57 51° N 01:54:08 10° E night (unlit)
03 Apr - 03:24:12 10° WNW 03:27:26 63° SSW 03:30:38 10° SE night (unlit)
03 Apr - 05:01:45 10° WSW 05:03:20 13° SW 05:04:51 10° SSW night (unlit)
03 Apr - 21:41:54 10° SSW 21:44:34 23° SE 21:47:16 10° E visible
03 Apr - 23:17:27 10° WSW 23:20:43 82° NNW 23:23:59 10° ENE night (unlit)
04 Apr - 00:54:09 10° WNW 00:57:19 48° N 01:00:30 10° ENE night (unlit)
04 Apr - 02:30:39 10° WNW 02:33:55 86° NNE 02:37:10 10° ESE night (unlit)
04 Apr - 04:07:28 10° W 04:10:02 21° SW 04:12:33 10° SSE night (unlit)
04 Apr - 20:49:25 10° S 20:51:14 14° SE 20:53:06 10° ESE visible
04 Apr - 22:23:56 10° WSW 22:27:10 68° SSE 22:30:26 10° ENE visible
05 Apr - 00:00:29 10° W 00:03:41 50° N 00:06:52 10° ENE night (unlit)
05 Apr - 01:37:06 10° WNW 01:40:20 64° NNE 01:43:34 10° E night (unlit)
05 Apr - 03:13:37 10° W 03:16:38 35° SSW 03:19:37 10° SE night (unlit)
05 Apr - 21:30:34 10° SW 21:33:40 42° SSE 21:36:47 10° ENE visible
05 Apr - 23:06:48 10° W 23:10:02 59° N 23:13:16 10° ENE visible
06 Apr - 00:43:29 10° WNW 00:46:42 52° N 00:49:53 10° E night (unlit)
06 Apr - 02:19:56 10° WNW 02:23:09 57° SSW 02:26:20 10° SE night (unlit)
06 Apr - 03:57:49 10° WSW 03:59:01 11° SW 04:00:06 10° SSW night (unlit)
06 Apr - 20:37:25 10° SSW 20:40:12 26° SE 20:43:00 10° E visible
06 Apr - 22:13:07 10° WSW 22:16:23 77° NNW 22:19:39 10° ENE visible
06 Apr - 23:49:49 10° WNW 23:53:00 48° N 23:56:11 10° ENE visible
07 Apr - 01:26:19 10° WNW 01:29:34 87° SSW 01:32:49 10° ESE night (unlit)
07 Apr - 03:03:12 10° W 03:05:38 19° SW 03:08:02 10° S night (unlit)
07 Apr - 19:44:43 10° S 19:46:46 16° SE 19:48:52 10° E daylight
07 Apr - 21:19:29 10° WSW 21:22:45 75° SSE 21:26:01 10° ENE visible
07 Apr - 22:56:05 10° W 22:59:16 49° N 23:02:28 10° ENE visible
08 Apr - 00:32:40 10° WNW 00:35:55 68° NNE 00:39:10 10° E night (unlit)
